Location: PSU-Greenbush Astrophysical Observatory
(37.5140°N, 94.9880°W)
Time: 07:27:21
(UTC-06:00)

XW-2C - Visible Passes

Search period start: 18 February 2020 00:00
Search period end: 28 February 2020 00:00
Orbit: 507 x 529 km, 97.5° (Epoch: 18 February)

Date Brightness Start Highest point End Pass type
(mag) Time Alt. Az. Time Alt. Az. Time Alt. Az.
18 Feb ? 06:30:03 10° N 06:33:45 61° WNW 06:37:28 10° SSW visible
18 Feb ? 18:45:34 10° WSW 18:46:22 11° W 18:47:11 10° W visible
19 Feb ? 06:15:56 10° NNE 06:19:42 85° ESE 06:23:28 10° S visible
19 Feb ? 18:29:49 10° SW 18:32:11 16° W 18:34:33 10° NW visible
20 Feb ? 06:01:55 10° NNE 06:05:36 53° E 06:09:18 10° S visible
21 Feb ? 05:48:02 10° NNE 05:51:30 34° E 05:54:57 10° SSE visible
22 Feb ? 05:34:19 10° NE 05:37:21 23° E 05:40:22 10° SSE visible
23 Feb ? 05:20:53 10° NE 05:23:11 15° E 05:25:29 10° SE visible
24 Feb ? 05:08:38 10° E 05:08:58 10° E 05:09:20 10° E visible
25 Feb ? 06:25:29 10° N 06:29:15 71° WNW 06:33:01 10° SSW visible
25 Feb ? 18:40:17 10° WSW 18:41:48 12° W 18:43:19 10° WNW visible
26 Feb ? 06:11:23 10° NNE 06:15:10 73° E 06:18:57 10° S visible
27 Feb ? 05:57:24 10° NNE 06:01:05 46° E 06:04:44 10° S visible
